Location: Castifao
(42.5040°N, 9.1124°E)
Time: 03:34:15
(UTC+00:00)

COSMO-SKYMED 1 - Pass Details

Date: 23 January 2020
Orbit: 621 x 623 km, 97.9° (Epoch: 18 February)

Event Time Altitude Azimuth Distance (km) Brightness Sun altitude
Rises 17:51:29 0° 8° (N) 2,912 5.8 -15.9°
Reaches altitude 10° 17:53:43 10° 4° (N) 2,000 5.0 -16.3°
Maximum altitude 17:57:57 55° 287° (WNW) 751 3.3 -17.1°
Drops below altitude 10° 18:02:11 10° 210° (SSW) 1,985 5.7 -17.8°
Sets 18:04:23 0° 206° (SSW) 2,886 6.5 -18.2°
